EW5625 Weather Reports


time (UTC)temp
C
wind
direction
speed
KPH
gust
KPH
rain 1hr
cm
rain 24hr
cm
rain mn
cm
humidity
%
barometer
mb
20260505034520 13 195 0.0 0.0 0.00 0.00 0.00 71 1011.3
20260505033030 14 214 0.0 0.0 0.00 0.00 0.00 69 1011.4
20260505031518 15 243 0.0 0.0 0.00 0.00 0.00 67 1011.5
20260505030018 15 231 0.0 0.0 0.00 0.00 0.00 67 1011.5
20260505024540 15 219 0.0 0.0 0.00 0.00 0.00 65 1011.5
20260505023017 16 212 0.0 0.0 0.00 0.00 0.00 65 1011.5
20260505021533 16 209 0.0 0.0 0.00 0.00 0.00 63 1011.5
20260505020016 16 231 0.0 0.0 0.00 0.00 0.00 63 1011.8
20260505014521 16 223 0.0 0.0 0.00 0.00 0.00 61 1011.8
20260505013015 16 198 0.0 0.0 0.00 0.00 0.00 59 1011.6
20260505011512 17 181 0.0 0.0 0.00 0.00 0.00 56 1011.3
20260505010011 17 215 0.0 0.0 0.00 0.00 0.00 55 1011.2
20260505004521 18 245 0.0 0.0 0.00 0.00 0.00 54 1011.1
20260505003010 18 187 0.0 0.0 0.00 0.00 0.00 53 1011.0
20260505001510 18 221 0.0 0.0 0.00 0.00 0.00 52 1010.8
20260505000010 18 166 0.0 0.0 0.00 0.00 0.00 51 1010.8
20260504234507 20 245 0.0 0.0 0.00 0.00 0.00 50 1010.8
20260504233007 20 248 0.0 0.0 0.00 0.00 0.00 48 1010.9
20260504231505 21 251 0.0 0.0 0.00 0.00 0.00 48 1010.9
20260504230004 21 186 0.0 0.0 0.00 0.00 0.00 46 1010.9
20260504224506 22 226 0.0 0.0 0.00 0.00 0.00 45 1010.9
20260504223002 22 237 0.0 0.0 0.00 0.00 0.00 46 1010.9
20260504221501 22 273 0.0 0.0 0.00 0.00 0.00 44 1010.9
20260504220135 22 224 0.0 0.0 0.00 0.00 0.00 44 1010.9
20260504214558 22 229 0.0 0.0 0.00 0.00 0.00 44 1011.0
20260504213123 22 297 0.0 0.0 0.00 0.00 0.00 44 1011.1
20260504211558 22 290 0.0 0.0 0.00 0.00 0.00 44 1011.0
20260504210101 22 233 0.0 0.0 0.00 0.00 0.00 42 1011.0
20260504204604 22 274 0.0 0.0 0.00 0.00 0.00 44 1011.1
20260504203053 22 311 0.0 0.0 0.00 0.00 0.00 44 1011.1
20260504201551 22 226 0.0 0.0 0.00 0.00 0.00 44 1011.3
20260504200048 22 184 0.0 0.0 0.00 0.00 0.00 45 1011.6
20260504194546 21 167 0.0 0.0 0.00 0.00 0.00 45 1011.8
20260504193043 22 167 0.0 0.0 0.00 0.00 0.00 46 1012.0
20260504191541 21 280 0.0 0.0 0.00 0.00 0.00 46 1012.2
20260504190039 21 202 0.0 0.0 0.00 0.00 0.00 47 1012.5
20260504184537 21 201 0.0 0.0 0.00 0.00 0.00 47 1012.5
20260504183035 21 269 0.0 0.0 0.00 0.00 0.00 45 1012.5
20260504181531 21 232 0.0 0.0 0.00 0.00 0.00 47 1012.8
20260504180029 21 160 0.0 0.0 0.00 0.00 0.00 45 1013.1
20260504174525 20 311 0.0 0.0 0.00 0.00 0.00 47 1013.3
20260504173025 20 263 0.0 0.0 0.00 0.00 0.00 47 1013.6
20260504171524 20 238 0.0 0.0 0.00 0.00 0.00 48 1013.9
20260504081547 0 127 0.0 0.0 0.00 0.00 0.00 92 1016.7
20260504050015 6 241 0.0 0.0 0.00 0.00 0.00 74 1016.7
20260504044507 6 243 0.0 0.0 0.00 0.00 0.00 73 1016.8
20260504043004 6 243 0.0 0.0 0.00 0.00 0.00 72 1016.8
20260504041601 6 251 0.0 0.0 0.00 0.00 0.00 71 1016.5
20260504040058 7 248 0.0 0.0 0.00 0.00 0.00 70 1016.4